When you browse on this site, cookies collect data to enhance your experience and personalize the content and advertising you see.
Visit our Privacy Policy to learn more. By continuing to use the site, you agree to this use of cookies and data.
  • In Hungary
  • List of Countries
  • For 7 days
  • Water Temperature
  • Satellite Maps
  • Weather Map
  • News
  • Weather Widgets
  • user-avatar
    Login

    Hourly Weather Konosha

    Today, 16 January, Wednesday

    Time Temperature Precipitation Wind Pressure Humidity
    00:00 -7°C° 0.1 mm 3 mps 721 mmHg 93%
    01:00 -7°C° 0.1 mm 3 mps 721 mmHg 92%
    02:00 -6°C° 0.1 mm 3 mps 721 mmHg 92%
    03:00 -6°C° 0 mm 3 mps 721 mmHg 92%
    04:00 -6°C° 0.1 mm 3 mps 721 mmHg 90%
    05:00 -6°C° 0.1 mm 3 mps 721 mmHg 88%
    06:00 -7°C° 0.1 mm 4 mps 721 mmHg 86%
    07:00 -8°C° 0 mm 4 mps 722 mmHg 87%
    08:00 -8°C° 0 mm 4 mps 722 mmHg 87%
    09:00 -8°C° 0 mm 4 mps 722 mmHg 86%
    10:00 -8°C° 0.1 mm 4 mps 722 mmHg 86%
    11:00 -9°C° 0.1 mm 4 mps 722 mmHg 86%
    12:00 -9°C° 0.1 mm 4 mps 723 mmHg 86%
    13:00 -9°C° 0.2 mm 4 mps 723 mmHg 86%
    14:00 -9°C° 0.2 mm 4 mps 723 mmHg 87%
    15:00 -10°C° 0 mm 4 mps 723 mmHg 86%
    16:00 -10°C° 0.1 mm 4 mps 723 mmHg 88%
    17:00 -9°C° 0.1 mm 3 mps 723 mmHg 89%
    18:00 -9°C° 0.1 mm 3 mps 723 mmHg 90%
    19:00 -9°C° 0.1 mm 3 mps 723 mmHg 91%
    20:00 -9°C° 0.1 mm 3 mps 722 mmHg 92%
    21:00 -10°C° 0.1 mm 3 mps 722 mmHg 93%
    22:00 -10°C° 0.1 mm 3 mps 722 mmHg 93%
    23:00 -9°C° 0.1 mm 3 mps 722 mmHg 93%

    Tomorrow, 17 January, Thursday

    Time Temperature Precipitation Wind Pressure Humidity
    00:00 -9°C° 0.1 mm 3 mps 722 mmHg 94%
    01:00 -9°C° 0.1 mm 3 mps 722 mmHg 94%
    02:00 -8°C° 0.1 mm 3 mps 722 mmHg 94%
    03:00 -8°C° 0.1 mm 3 mps 722 mmHg 94%
    04:00 -7°C° 0.2 mm 3 mps 722 mmHg 93%
    05:00 -7°C° 0.2 mm 3 mps 722 mmHg 92%
    06:00 -7°C° 0.2 mm 3 mps 722 mmHg 92%
    07:00 -7°C° 0.1 mm 3 mps 722 mmHg 92%
    08:00 -7°C° 0.1 mm 3 mps 723 mmHg 91%
    09:00 -7°C° 0.1 mm 3 mps 723 mmHg 91%
    10:00 -8°C° 0 mm 3 mps 723 mmHg 91%
    11:00 -8°C° 0 mm 3 mps 723 mmHg 91%
    12:00 -9°C° 0 mm 3 mps 723 mmHg 90%
    13:00 -9°C° 0 mm 3 mps 723 mmHg 89%
    14:00 -9°C° 0 mm 3 mps 723 mmHg 88%
    15:00 -9°C° 0 mm 3 mps 723 mmHg 87%
    16:00 -9°C° 0.4 mm 3 mps 722 mmHg 89%
    17:00 -11°C° 0.4 mm 4 mps 721 mmHg 90%
    18:00 -11°C° 0.4 mm 4 mps 721 mmHg 92%
    19:00 -10°C° 0.3 mm 4 mps 720 mmHg 92%
    20:00 -10°C° 0.3 mm 4 mps 719 mmHg 92%
    21:00 -10°C° 0.3 mm 4 mps 718 mmHg 91%
    22:00 -9°C° 0.7 mm 4 mps 717 mmHg 92%
    23:00 -8°C° 0.7 mm 4 mps 716 mmHg 93%

    Day after tomorrow, 18 January, Friday

    Time Temperature Precipitation Wind Pressure Humidity
    00:00 -7°C° 0.7 mm 4 mps 715 mmHg 93%
    01:00 -4°C° 1 mm 4 mps 715 mmHg 92%
    02:00 -3°C° 1 mm 4 mps 714 mmHg 92%
    03:00 -2°C° 1 mm 4 mps 713 mmHg 91%
    04:00 -2°C° 0.6 mm 4 mps 713 mmHg 91%
    05:00 -2°C° 0.6 mm 4 mps 713 mmHg 91%
    06:00 -2°C° 0.6 mm 4 mps 713 mmHg 91%
    07:00 -4°C° 0.1 mm 5 mps 714 mmHg 88%
    08:00 -5°C° 0.1 mm 5 mps 715 mmHg 85%
    09:00 -7°C° 0.1 mm 5 mps 716 mmHg 83%
    10:00 -7°C° 0.1 mm 5 mps 717 mmHg 83%
    11:00 -8°C° 0.1 mm 5 mps 718 mmHg 84%
    12:00 -10°C° 0.1 mm 5 mps 719 mmHg 84%
    13:00 -10°C° 0.1 mm 5 mps 720 mmHg 84%
    14:00 -11°C° 0.1 mm 5 mps 721 mmHg 83%
    15:00 -11°C° 0.1 mm 5 mps 721 mmHg 83%
    16:00 -12°C° 0.1 mm 5 mps 722 mmHg 84%
    17:00 -11°C° 0.1 mm 4 mps 722 mmHg 85%
    18:00 -12°C° 0.1 mm 4 mps 723 mmHg 87%
    19:00 -14°C° 0 mm 4 mps 723 mmHg 88%
    20:00 -15°C° 0 mm 4 mps 724 mmHg 90%
    21:00 -15°C° 0 mm 3 mps 724 mmHg 92%
    22:00 -16°C° 0 mm 3 mps 724 mmHg 93%
    23:00 -17°C° 0 mm 3 mps 725 mmHg 94%

    19 January, Saturday

    Time Temperature Precipitation Wind Pressure Humidity
    00:00 -18°C° 0 mm 3 mps 725 mmHg 96%
    01:00 -17°C° 0 mm 2 mps 725 mmHg 96%
    02:00 -18°C° 0 mm 2 mps 726 mmHg 97%
    03:00 -19°C° 0 mm 2 mps 726 mmHg 98%
    04:00 -19°C° 0 mm 2 mps 726 mmHg 98%
    05:00 -19°C° 0 mm 2 mps 726 mmHg 98%
    06:00 -19°C° 0 mm 2 mps 726 mmHg 98%
    07:00 -18°C° 0 mm 2 mps 726 mmHg 97%
    08:00 -18°C° 0 mm 2 mps 727 mmHg 97%
    09:00 -17°C° 0 mm 2 mps 727 mmHg 96%
    10:00 -16°C° 0.1 mm 2 mps 727 mmHg 95%
    11:00 -16°C° 0.1 mm 2 mps 728 mmHg 95%
    12:00 -16°C° 0.1 mm 3 mps 728 mmHg 94%
    13:00 -16°C° 0.1 mm 3 mps 728 mmHg 93%
    14:00 -16°C° 0.1 mm 3 mps 729 mmHg 93%
    15:00 -15°C° 0.1 mm 3 mps 729 mmHg 93%
    16:00 -16°C° 0 mm 3 mps 729 mmHg 93%
    17:00 -17°C° 0 mm 3 mps 730 mmHg 94%
    18:00 -17°C° 0 mm 3 mps 730 mmHg 95%
    19:00 -17°C° 0 mm 2 mps 730 mmHg 95%
    20:00 -17°C° 0 mm 2 mps 731 mmHg 96%
    21:00 -18°C° 0 mm 2 mps 731 mmHg 96%
    22:00 -18°C° 0 mm 2 mps 731 mmHg 96%
    23:00 -18°C° 0 mm 2 mps 732 mmHg 97%

    20 January, Sunday

    Time Temperature Precipitation Wind Pressure Humidity
    00:00 -18°C° 0 mm 2 mps 732 mmHg 97%
    01:00 -18°C° 0 mm 2 mps 732 mmHg 97%
    02:00 -16°C° 0 mm 1 mps 733 mmHg 97%
    03:00 -16°C° 0 mm 1 mps 733 mmHg 97%
    04:00 -16°C° 0 mm 1 mps 733 mmHg 98%
    05:00 -16°C° 0 mm 1 mps 734 mmHg 98%
    06:00 -16°C° 0 mm 1 mps 734 mmHg 98%
    07:00 -16°C° 0.1 mm 1 mps 734 mmHg 98%
    08:00 -16°C° 0.1 mm 1 mps 735 mmHg 98%
    09:00 -16°C° 0.1 mm 1 mps 735 mmHg 98%
    10:00 -15°C° 0 mm 1 mps 735 mmHg 97%
    11:00 -15°C° 0 mm 1 mps 736 mmHg 96%
    12:00 -14°C° 0 mm 0 mps 736 mmHg 96%
    13:00 -15°C° 0 mm 0 mps 736 mmHg 96%
    14:00 -15°C° 0 mm 0 mps 736 mmHg 97%
    15:00 -15°C° 0 mm 0 mps 736 mmHg 97%
    16:00 -15°C° 0 mm 0 mps 737 mmHg 97%
    17:00 -16°C° 0 mm 0 mps 737 mmHg 97%
    18:00 -17°C° 0 mm 0 mps 737 mmHg 98%
    19:00 -17°C° 0 mm 0 mps 737 mmHg 98%
    20:00 -17°C° 0 mm 0 mps 737 mmHg 98%
    21:00 -18°C° 0 mm 0 mps 737 mmHg 98%
    22:00 -18°C° 0 mm 0 mps 737 mmHg 98%
    23:00 -18°C° 0 mm 0 mps 737 mmHg 98%

    21 January, Monday

    Time Temperature Precipitation Wind Pressure Humidity
    00:00 -19°C° 0 mm 0 mps 738 mmHg 98%
    01:00 -19°C° 0 mm 1 mps 738 mmHg 98%
    02:00 -19°C° 0 mm 1 mps 738 mmHg 98%
    03:00 -19°C° 0 mm 1 mps 738 mmHg 98%
    04:00 -19°C° 0 mm 1 mps 738 mmHg 98%
    05:00 -19°C° 0 mm 1 mps 738 mmHg 98%
    06:00 -19°C° 0 mm 1 mps 738 mmHg 98%
    07:00 -19°C° 0 mm 1 mps 738 mmHg 98%
    08:00 -19°C° 0 mm 1 mps 738 mmHg 98%
    09:00 -19°C° 0 mm 1 mps 738 mmHg 98%
    10:00 -18°C° 0 mm 1 mps 738 mmHg 97%
    11:00 -18°C° 0 mm 0 mps 738 mmHg 97%
    12:00 -17°C° 0 mm 0 mps 738 mmHg 96%
    13:00 -17°C° 0 mm 0 mps 738 mmHg 96%
    14:00 -17°C° 0 mm 0 mps 738 mmHg 97%
    15:00 -17°C° 0 mm 0 mps 738 mmHg 97%
    16:00 -17°C° 0 mm 0 mps 738 mmHg 97%
    17:00 -18°C° 0 mm 0 mps 738 mmHg 98%
    18:00 -19°C° 0 mm 0 mps 738 mmHg 98%
    19:00 -19°C° 0 mm 0 mps 738 mmHg 98%
    20:00 -19°C° 0 mm 0 mps 738 mmHg 98%
    21:00 -19°C° 0 mm 0 mps 738 mmHg 98%
    22:00 -19°C° 0 mm 0 mps 738 mmHg 98%
    23:00 -20°C° 0 mm 0 mps 738 mmHg 98%
    Show more